User: anonymous   Login
Location: Pine Mountain Observatory
(43.7910°N, 120.9377°W)
Time: 18:53:40
(UTC-07:00)
Language:

IDEFIX/ARIANE 42P - Orbit

View from above orbital plane
View from above orbital plane
View from above satellite
View from above satellite

Ground track
Ground track

The orbit data is extracted from the following two-line orbital elements,

1 27422U 02021B   14304.14001524  .00000216  00000-0  10153-3 0  6316
2 27422 098.2851 340.0618 0012396 195.9936 229.3147 14.29073919649559
Epoch (UTC): 31 October 2014 03:21:37
Eccentricity: 0.0012396
inclination: 98.2851°
perigee height: 786 km
apogee height: 804 km
right ascension of ascending node: 340.0618°
argument of perigee: 195.9936°
revolutions per day: 14.29073919
mean anomaly at epoch: 229.3147°
orbit number at epoch: 64955

The dashed part of the orbit path shows where the satellite is in the earth's shadow,  

DLR